Regional Weather Roundup
Issued by NWS

Home | Current Version | Previous Version | Graphics & Text | Print | Product List | Glossary On
Versions: 1 2 3 4 5 6 7 8 9 10 11 12 13 14 15 16 17 18 19 20 21 22 23 24 25 26 27 28 29 30 31 32 33 34 35 36 37 38 39 40 41 42 43 44 45 46 47 48 49 50
555
ASUS45 KSLC 280010
RWRUT

UTAH REGIONAL WEATHER ROUNDUP
NATIONAL WEATHER SERVICE SALT LAKE CITY UT
600 PM MDT TUE SEP 27 2016

UTZ001>011-023>025-280100-

NORTHERN UTAH

CITY           SKY/WX    TMP DP  RH WIND       PRES   REMARKS
BRIGHAM CITY     N/A     75  43  32 W3        30.13F
HILL AFB       SUNNY     73  49  43 NW6       30.15F
LOGAN          SUNNY     76  50  40 NW7       30.13F
OGDEN          SUNNY     73  50  44 NW6       30.13F
PROVO AIRPORT  SUNNY     75  46  35 VRB5      30.13F
SALT LAKE CITY MOSUNNY   75  50  41 W10       30.11F
VERNAL         SUNNY     71  46  40 SE3       30.17F
WENDOVER       SUNNY    N/A N/A N/A MISG        N/A
HEBER CITY     SUNNY     75  37  25 SW13      30.14S
WEST JORDAN    SUNNY     72  45  37 NW9       30.15S

$$

UTZ012>022-026-027-280100-

SOUTHERN/CENTRAL UTAH

CITY           SKY/WX    TMP DP  RH WIND       PRES   REMARKS
BLANDING       SUNNY     74  31  20 CALM      30.26F
BRYCE CANYON   SUNNY     67  32  27 S12       30.31F
CEDAR CITY     PTSUNNY   78  32  18 SW5       30.15S
DELTA          SUNNY     77  36  22 CALM      30.13S
MILFORD        SUNNY     81  30  15 N9        30.11F
MOAB/CYNLANDS  SUNNY     80  34  19 W7        30.10F
PRICE          SUNNY     74  35  24 SE6       30.21F
ST GEORGE      CLEAR     88  37  16 SE17G24   29.99F

$$

REGIONAL REPORTS     COLORADO/ARIZONA

CITY           SKY/WX    TMP DP  RH WIND       PRES   REMARKS
CRAIG, CO      SUNNY     74  29  19 W8        30.21S
GRAND JUNCTION SUNNY     78  33  19 NW10      30.11F
RIFLE          SUNNY     78  33  19 W14       30.13S
MONTROSE       SUNNY     75  34  22 NW9       30.17F
CORTEZ         SUNNY     74  35  24 S10       30.20S
PAGE, AZ       PTSUNNY   79  33  19 SW6       30.09F
GRAND CANYON   MOSUNNY   67  40  37 NE15      30.25R
KINGMAN        PTSUNNY   81  48  31 NE8       30.01F
FLAGSTAFF      MOSUNNY   64  44  48 E9        30.22F

$$

REGIONAL REPORTS    NEVADA/IDAHO/WYOMING

CITY           SKY/WX    TMP DP  RH WIND       PRES   REMARKS
LAS VEGAS, NV  PTSUNNY   88  36  15 E5        29.94F
ELY            SUNNY     78  26  14 N5        30.17F
ELKO           SUNNY     83  33  16 NE5       30.11F
POCATELLO, ID  SUNNY     78  44  29 NW6       30.13S
BURLEY         SUNNY     78  45  30 NE7       30.08S
EVANSTON, WY   SUNNY     72  30  21 NE6       30.26F
ROCK SPRINGS   SUNNY     69  29  22 SW5       30.25F

$$




USA.gov is the U.S. government's official web portal to all federal, state and local government web resources and services.